Theta_e
330 331 331 330 329 327 326 329 330 330 330 328 327 326 325 324 320 320 324 323 320 323 326 323 320 319 318 317 320 323 322 321 323 323 321 321 322 321 319 320 320 321 322 324 324 323 325 328 328 328 328 327 326 323 321 322 321 320 320 320 321 320 320 320 319 318 317 317 316 315 313 312 312 311 308 306 305 305 306 308 308 308 308 309 310
329 329 329 328 328 328 328 329 329 329 328 326 326 326 326 324 320 320 323 321 320 325 326 322 321 322 321 321 322 322 322 322 323 322 321 322 322 320 318 319 320 320 321 323 324 324 325 328 328 328 328 326 324 322 321 321 320 319 318 319 319 319 319 320 319 318 317 316 315 314 313 312 312 311 309 306 305 306 307 308 308 309 309 309 310
330 329 327 326 326 327 327 327 327 327 326 326 327 327 327 325 321 322 324 321 322 327 325 322 322 321 320 320 320 321 323 323 322 322 322 321 319 318 319 320 320 320 321 323 323 324 325 327 328 328 327 325 323 322 321 320 320 319 319 318 318 317 318 319 319 317 317 315 314 314 312 310 311 311 310 309 308 308 309 308 309 309 309 309 309
331 330 328 324 323 324 324 325 326 327 326 327 328 327 326 322 317 318 319 319 324 327 323 322 322 321 319 319 318 320 323 323 322 322 321 318 317 318 320 320 319 320 322 322 323 323 325 327 328 327 326 324 323 322 320 320 320 319 319 319 318 317 318 318 317 317 316 314 313 313 312 310 311 312 311 311 310 310 310 310 309 309 309 310 310
330 329 327 324 324 324 324 324 325 327 327 327 327 326 323 319 317 319 320 320 324 325 322 322 322 321 319 318 318 320 322 322 322 321 318 316 318 319 320 320 320 321 321 321 322 323 323 325 326 325 324 323 323 322 321 321 320 319 320 320 319 318 318 318 318 317 315 313 313 313 313 311 311 312 312 312 312 311 311 311 310 310 311 311 312
329 329 327 325 325 326 324 323 324 326 327 327 326 325 324 321 321 323 323 323 323 323 323 323 322 321 319 318 318 320 320 320 320 318 316 317 319 320 320 320 321 321 320 321 322 322 322 323 323 323 323 322 322 322 322 321 320 320 321 320 320 320 318 318 319 318 316 315 314 314 314 313 312 313 313 313 313 312 312 312 311 311 312 312 312
328 327 327 326 325 325 323 323 325 326 326 327 326 326 326 323 322 322 323 323 323 323 323 323 322 321 319 318 318 319 319 320 319 318 319 319 320 320 321 321 320 320 320 320 320 321 322 322 322 322 322 322 322 322 322 321 320 321 320 320 320 320 319 318 318 318 318 317 316 316 315 314 314 314 314 313 314 314 313 312 312 313 313 312 312
326 326 327 326 325 324 323 324 325 326 326 326 326 326 325 323 323 322 322 323 322 323 323 322 321 321 319 318 318 318 319 319 319 320 320 320 320 320 320 320 320 320 321 321 320 320 320 320 321 321 322 322 322 322 322 321 321 320 319 319 319 319 320 319 318 319 319 319 318 318 317 316 315 314 314 314 314 314 314 313 313 313 314 313 314
327 327 328 327 325 324 324 325 326 326 326 326 326 325 324 324 324 322 322 322 321 321 322 321 320 320 319 318 317 318 319 320 320 320 320 320 320 320 320 320 321 321 322 322 322 322 321 321 320 320 320 321 321 321 321 320 320 320 319 319 319 319 320 320 320 320 320 319 319 319 318 317 316 315 315 315 315 314 314 314 314 314 314 314 314
328 328 328 328 326 325 325 325 326 326 326 326 325 325 324 324 323 322 322 322 320 320 321 320 320 320 319 318 318 318 319 320 320 320 320 320 320 320 320 320 321 321 322 323 322 322 322 322 321 320 319 319 319 319 319 319 319 319 319 319 319 319 319 320 320 320 320 320 320 319 319 318 317 317 316 316 316 315 315 315 314 315 315 314 314
327 328 328 327 326 326 327 326 326 326 326 325 325 325 324 323 322 322 322 321 320 319 319 318 319 320 320 320 320 320 320 320 320 319 319 319 320 321 321 321 321 322 322 323 323 322 322 323 322 321 319 319 318 318 317 317 317 317 317 318 318 319 319 319 320 320 320 320 320 319 319 319 318 318 317 317 317 316 315 315 315 315 315 315 315
326 326 327 327 326 326 326 327 327 326 326 326 324 324 324 323 322 321 321 320 319 319 319 319 320 321 321 321 321 321 320 320 319 318 319 319 320 321 321 321 322 322 322 322 322 322 322 322 322 322 321 318 317 317 317 317 317 317 317 317 317 317 317 317 318 318 319 319 320 320 320 319 319 319 318 317 317 317 316 316 316 316 316 316 316
325 325 325 326 326 325 325 326 326 326 326 325 324 324 323 322 322 321 321 320 319 319 319 319 320 321 321 321 320 320 321 320 319 318 318 318 318 320 322 323 323 322 322 321 321 321 321 321 321 321 321 321 319 318 318 318 317 317 317 317 317 317 317 317 316 317 317 317 318 319 320 320 320 319 318 317 317 317 317 316 316 316 316 316 316
323 323 323 323 324 324 325 325 325 326 326 325 324 323 323 322 322 321 320 319 319 320 320 320 320 320 321 321 320 318 318 318 318 318 318 317 316 316 318 319 321 322 323 322 320 320 321 321 320 320 321 321 321 320 320 319 319 318 317 317 317 317 317 317 317 318 318 318 317 317 318 319 319 319 319 318 317 317 317 317 317 317 316 316 316
321 322 322 321 322 322 323 323 323 324 324 324 323 323 322 322 321 320 318 315 316 319 319 318 317 316 317 317 315 313 312 312 312 313 313 312 311 311 311 311 313 316 320 322 321 321 321 321 321 320 320 320 320 320 321 320 319 318 317 317 317 317 318 318 318 318 318 319 319 318 317 317 317 318 318 318 318 318 317 317 317 317 317 317 316
320 321 321 321 321 321 321 322 322 322 322 322 322 322 322 321 320 318 316 312 312 315 315 314 312 312 313 312 311 310 311 310 309 309 309 310 311 312 312 312 310 310 313 317 319 320 320 320 319 319 318 318 319 320 320 320 320 320 320 318 318 318 318 318 318 318 319 319 320 320 319 318 317 317 317 317 318 318 318 318 317 317 317 317 316
319 319 320 320 321 321 321 321 321 321 320 320 321 321 321 320 319 317 316 315 315 315 313 312 312 311 311 312 311 309 310 310 311 311 311 312 313 313 313 312 311 310 311 315 317 317 317 317 317 317 317 318 319 319 319 319 320 321 320 319 318 319 319 319 318 318 319 319 319 320 320 319 318 317 317 317 317 318 318 318 318 317 317 317 317
318 318 318 318 319 319 319 320 320 320 320 320 320 320 320 320 318 316 316 317 316 314 311 310 310 310 313 315 315 313 312 313 313 313 313 313 313 313 313 313 314 314 315 317 318 318 317 316 317 318 317 318 319 318 318 319 319 319 319 318 318 319 319 319 318 318 319 319 319 320 319 319 318 317 317 318 318 318 318 318 318 317 317 316 315
317 317 317 318 318 318 318 318 319 319 319 319 320 319 319 319 318 315 315 316 314 313 311 311 311 312 314 316 318 317 317 316 315 314 314 314 314 314 314 314 315 316 316 317 317 317 318 318 319 319 318 318 317 317 317 318 318 319 319 319 318 318 318 318 318 318 318 318 319 319 319 318 317 317 318 318 318 318 317 317 316 315 314 314 313
316 317 317 317 317 317 318 318 318 318 318 319 319 318 318 318 318 317 316 316 315 315 315 314 314 314 314 316 318 318 318 318 317 317 317 316 316 316 316 316 316 317 318 318 318 317 318 318 318 318 317 317 317 316 316 316 316 316 317 317 317 317 317 317 318 318 317 317 317 318 318 318 317 317 318 318 318 317 315 315 315 314 314 314 313
315 316 316 316 316 316 317 317 317 316 317 317 318 318 318 318 318 318 318 318 318 318 318 318 317 316 317 317 319 319 319 319 319 318 318 318 318 318 318 317 317 317 317 317 317 317 316 316 316 316 316 315 315 316 315 315 314 315 315 316 316 316 316 316 317 317 317 317 317 317 317 317 316 316 316 316 316 315 314 314 314 314 314 313 313
311 312 313 313 313 314 314 315 315 315 315 315 316 317 317 316 316 316 316 316 316 316 317 317 317 317 317 318 318 318 317 317 317 317 317 317 317 317 317 316 316 315 314 314 315 315 315 314 314 314 314 314 313 313 313 313 313 313 313 314 315 315 316 316 316 316 317 317 317 316 316 315 314 314 313 313 313 312 312 312 312 312 312 312 311
305 306 306 307 308 309 310 311 313 313 313 313 313 313 313 313 313 313 313 313 313 313 314 314 314 314 315 315 315 315 315 314 314 314 315 315 315 314 314 313 313 313 312 312 313 313 313 314 314 314 313 313 312 311 312 312 312 312 312 313 313 314 315 316 316 316 316 316 316 315 315 314 313 313 312 311 311 311 311 311 310 310 312 311 309
304 304 304 304 304 304 305 306 308 309 310 311 311 312 312 311 311 311 311 311 311 312 312 312 312 311 311 311 312 312 311 311 312 312 312 312 312 312 312 311 311 311 311 312 312 312 313 313 313 313 313 313 312 311 311 310 310 310 311 311 312 313 314 314 314 314 314 315 314 314 314 314 313 313 312 311 311 310 310 310 309 309 309 310 309
302 303 303 303 302 302 302 303 303 304 305 306 307 309 310 310 310 310 310 310 310 310 311 311 310 310 309 309 309 308 308 310 310 310 309 309 308 308 308 308 308 308 308 309 309 310 310 311 311 311 311 310 309 307 306 306 306 306 308 309 310 311 312 313 313 312 312 313 313 313 313 313 313 312 312 311 311 310 310 310 309 308 307 307 307
299 299 299 300 301 301 300 301 301 301 302 302 303 304 306 307 309 309 308 308 308 308 308 308 308 307 307 306 306 305 306 307 307 306 304 303 302 301 301 301 301 301 301 301 302 302 303 303 303 302 302 302 301 300 299 299 299 300 301 303 306 308 309 310 310 311 312 312 313 313 312 312 312 312 311 311 311 310 310 309 309 308 307 306 305
298 298 298 299 299 299 298 298 299 299 300 300 300 300 300 301 303 304 305 305 305 305 306 306 306 305 305 304 304 304 304 304 304 303 300 298 297 297 297 297 297 297 297 297 297 297 297 297 297 297 297 297 297 298 298 298 298 298 298 299 300 302 304 305 307 308 310 311 311 311 312 312 312 311 311 310 310 309 309 308 308 307 307 306 305
299 298 299 299 299 298 297 296 296 297 297 297 297 297 297 297 298 299 301 301 301 301 302 303 304 304 303 303 304 304 304 304 303 300 298 296 296 296 296 296 296 296 296 296 296 296 296 296 296 296 297 298 300 301 302 301 301 301 301 301 300 300 302 303 304 305 306 306 307 308 309 310 310 310 310 309 308 308 307 307 306 306 305 304 304
301 300 300 300 300 300 299 298 296 295 295 295 295 296 296 296 296 296 297 297 297 297 297 298 299 299 299 300 301 302 302 301 299 297 295 295 296 295 296 296 295 295 296 296 296 295 295 296 298 299 301 302 303 304 304 303 303 303 303 304 303 303 303 304 304 304 304 305 305 306 307 308 309 309 308 307 306 306 305 304 304 303 302 302 302
300 300 300 301 300 301 301 301 299 298 297 297 296 295 295 295 295 295 295 295 295 295 295 295 295 295 296 296 296 297 297 297 296 295 295 295 295 295 295 295 295 295 295 295 295 296 297 300 302 303 304 304 304 304 304 304 303 303 303 304 304 304 303 303 303 303 304 304 305 305 306 306 307 307 307 306 305 304 303 303 303 301 301 301 301
299 300 299 300 300 300 300 300 300 300 300 300 300 298 297 295 295 295 295 295 295 295 295 295 295 295 295 295 295 295 295 295 295 295 295 295 295 295 295 295 296 296 295 296 297 300 301 302 303 303 303 303 303 303 303 303 303 303 303 303 303 303 303 303 303 303 303 303 304 304 304 305 305 305 305 305 304 303 302 302 301 300 300 300 300
299 299 299 299 299 299 299 299 299 300 300 300 300 300 300 298 297 296 295 295 295 295 295 295 295 295 295 295 295 295 295 295 295 295 295 295 295 295 296 297 298 298 298 299 301 302 302 302 303 303 303 302 302 302 302 303 303 303 303 303 302 302 303 303 303 303 303 303 303 303 303 303 304 304 304 304 303 302 301 300 300 300 300 299 298
300 300 300 299 299 299 299 299 299 298 299 299 299 300 300 300 299 299 298 297 296 296 296 296 295 295 295 294 294 294 294 294 295 295 295 295 296 297 298 299 299 299 300 301 301 301 301 302 302 302 302 302 302 302 302 302 302 302 302 302 302 302 302 302 302 302 302 303 302 302 302 302 302 303 303 302 302 301 300 300 300 299 299 298 298
300 300 300 300 300 300 299 299 298 298 298 298 298 298 298 298 299 299 299 298 298 298 298 297 296 296 296 295 294 294 295 295 295 295 296 296 297 298 299 300 300 300 300 300 300 300 300 301 301 301 301 301 300 301 301 301 301 301 301 301 301 301 301 301 301 301 302 302 302 302 301 301 301 301 301 301 300 300 299 299 298 298 298 298 298
299 299 299 299 299 299 299 298 298 297 297 297 297 296 297 297 298 298 297 297 298 298 298 297 297 297 296 295 295 295 295 296 296 296 297 298 298 299 299 300 300 299 300 300 300 299 299 299 299 298 298 298 298 298 299 299 299 299 299 299 299 299 300 300 301 301 301 301 301 301 300 300 300 299 300 299 299 299 298 298 297 297 297 297 296
299 299 299 298 298 297 296 296 295 295 296 297 297 297 298 298 298 297 296 296 297 298 298 297 297 297 297 295 295 296 296 297 297 297 297 298 299 299 299 299 299 299 299 299 298 298 297 297 296 296 296 296 296 296 297 298 298 298 299 298 298 298 299 299 299 299 300 300 299 299 299 299 299 299 298 298 298 298 297 297 297 296 295 294 294
298 299 299 298 298 296 295 294 293 294 296 297 298 298 298 298 298 297 296 295 296 297 297 297 297 297 296 295 295 296 297 297 297 297 297 297 298 298 298 299 299 299 298 297 296 296 296 296 296 296 296 296 296 296 297 297 298 298 298 298 298 298 298 298 298 298 299 298 298 298 298 298 298 297 297 297 297 296 296 295 294 294 293 292 292
298 298 298 298 298 297 296 294 294 295 297 297 297 296 296 297 297 296 296 295 295 296 297 296 296 296 295 295 296 296 297 297 297 296 296 296 297 297 297 298 298 298 297 296 296 296 295 295 296 297 297 297 297 297 297 297 297 297 297 297 297 298 298 298 298 298 298 298 297 297 297 296 296 296 296 296 295 294 293 293 293 293 293 292 292
297 297 297 297 297 297 296 295 296 296 297 297 296 295 295 296 296 296 296 296 296 296 296 296 295 295 295 296 296 296 297 297 296 296 296 296 296 296 297 297 297 297 297 296 296 296 296 296 297 297 297 297 297 297 297 297 297 297 297 296 296 297 297 297 297 297 297 296 296 296 296 296 296 296 295 294 293 293 293 293 292 292 293 293 293
297 297 296 296 297 297 296 296 296 296 296 297 296 295 295 295 295 295 295 295 295 295 296 295 295 295 295 296 296 296 297 296 296 296 296 296 296 296 296 297 297 297 297 296 296 296 296 296 296 297 297 297 297 297 296 296 296 296 297 296 296 296 296 296 296 295 295 295 295 295 295 295 295 294 294 293 293 293 292 292 292 292 292 293 293
297 297 296 296 297 297 297 297 296 296 295 296 296 296 295 295 295 295 295 295 295 295 295 295 295 295 295 296 296 296 296 296 296 296 296 295 295 295 295 296 296 296 296 295 295 295 295 295 295 295 295 296 296 296 296 295 295 296 296 296 296 295 295 295 295 295 295 295 295 295 294 294 294 293 293 293 293 292 292 292 292 292 292 292 293
297 297 296 297 297 297 297 297 297 296 295 295 295 296 295 295 294 294 295 295 295 295 295 295 295 295 295 296 296 296 296 296 296 295 295 295 295 295 295 295 295 295 295 295 295 295 295 294 294 294 294 294 295 295 295 295 295 295 295 295 295 295 294 294 294 295 295 295 294 294 294 293 293 293 293 293 293 293 292 292 292 292 292 292 292
297 297 297 297 297 297 297 296 296 296 294 294 294 295 295 295 295 295 295 295 294 294 295 295 295 295 295 295 296 296 296 295 295 295 295 295 295 295 295 295 295 295 295 295 295 294 294 294 294 293 293 293 294 294 294 295 295 295 295 295 294 294 294 294 295 295 294 294 294 293 293 293 293 293 293 293 293 292 292 292 292 292 292 292 291
297 297 297 297 297 297 297 296 296 295 294 294 294 295 295 295 295 295 295 295 294 294 294 294 294 295 295 295 295 295 295 295 295 294 294 295 295 295 294 294 294 294 294 294 294 294 294 293 293 293 293 293 293 293 293 294 294 294 295 295 294 294 294 294 294 294 294 294 293 293 293 293 293 292 292 292 292 292 292 292 291 291 291 291 291
297 297 297 297 297 297 297 296 296 295 295 295 295 295 295 295 294 294 294 294 294 294 294 294 294 294 294 295 295 294 295 295 294 294 295 295 294 294 294 294 294 294 294 293 293 293 293 293 293 293 293 293 293 293 293 293 293 293 293 294 294 294 294 294 294 294 294 293 293 293 292 292 292 292 291 292 291 291 291 291 291 291 291 291 291
297 297 297 297 297 297 297 297 296 296 296 295 295 295 295 295 294 294 294 294 294 294 294 294 294 294 294 294 294 294 294 294 294 294 294 294 294 294 294 294 294 293 293 293 293 293 293 293 293 293 293 293 293 293 292 292 292 292 292 292 292 293 293 294 294 294 293 293 293 293 292 292 291 291 291 290 291 291 291 290 291 291 291 291 291
297 297 297 297 297 297 297 297 296 296 296 296 295 295 295 295 294 294 294 294 294 294 294 294 294 294 294 294 294 294 294 294 293 293 293 293 293 293 293 293 293 293 293 293 293 293 293 293 293 293 293 293 293 292 292 292 292 291 291 291 291 292 292 292 292 292 292 292 291 291 291 291 291 291 290 290 290 290 291 291 291 291 291 291 291
297 297 297 297 297 297 297 297 297 297 296 296 295 294 294 294 294 294 294 294 294 294 294 294 294 294 294 294 294 294 294 294 293 293 293 293 293 293 293 293 293 293 293 293 292 292 292 292 292 292 292 292 292 291 291 291 290 290 290 291 291 291 291 291 291 291 291 290 290 290 290 290 290 291 291 290 290 290 291 291 291 291 291 291 290
297 297 297 297 297 297 297 297 297 297 297 296 296 295 294 294 294 294 294 295 294 294 294 294 294 294 294 294 294 294 293 293 293 293 293 293 292 292 293 293 292 292 292 292 291 292 292 292 292 292 292 291 291 290 290 289 289 288 288 289 289 289 290 290 290 290 290 290 289 289 289 289 289 289 290 290 290 289 290 290 290 291 291 290 290
297 297 297 297 297 297 297 297 297 297 297 297 296 296 295 295 294 294 295 295 294 295 295 294 294 294 294 293 293 294 294 293 293 293 293 293 292 291 291 291 291 291 291 291 291 291 291 291 291 291 291 290 289 288 287 287 287 287 287 287 287 287 287 288 288 289 289 289 289 289 289 288 288 288 289 289 289 289 289 289 289 290 290 289 290
297 297 297 297 297 297 297 297 297 297 297 297 296 296 296 296 295 295 295 294 294 295 295 294 294 294 294 294 294 293 293 293 293 293 293 293 292 291 290 291 291 291 291 291 291 291 291 291 290 290 289 288 287 287 287 287 287 287 287 286 286 286 286 286 286 287 287 288 288 289 289 289 288 288 288 289 289 289 289 289 289 289 289 288 289
Wind_Speed
18 15 12 14 18 18 18 19 18 16 16 18 18 17 16 15 15 16 16 14 16 16 11 9 9 8 8 10 11 12 12 12 12 10 9 10 7 5 8 7 4 4 6 6 3 3 7 9 8 9 10 10 11 12 11 8 6 8 9 10 10 10 13 15 16 15 11 10 12 9 7 12 14 12 10 11 11 11 13 13 14 15 16 16 15
17 17 14 14 17 19 19 19 18 16 15 16 17 15 15 15 16 17 15 14 16 15 11 10 10 9 9 9 9 11 11 12 11 10 9 9 7 7 9 7 5 5 6 6 4 4 6 7 9 10 11 12 14 13 11 9 8 7 7 9 10 8 11 16 17 16 14 11 11 12 11 14 16 15 11 11 11 11 13 15 15 15 15 14 13
17 19 17 16 18 20 19 19 17 16 16 17 17 16 16 14 15 17 15 14 16 14 11 12 11 10 9 8 8 10 10 11 10 10 8 8 9 11 9 6 7 7 7 5 5 5 6 7 9 11 12 14 14 10 11 12 8 7 6 9 12 8 7 13 15 13 14 14 13 15 15 15 16 15 13 11 11 11 13 15 15 15 15 14 12
14 18 19 19 21 21 21 20 18 18 19 19 19 18 16 13 13 15 14 15 16 13 11 12 11 10 9 8 8 9 9 10 10 8 7 8 11 10 7 7 9 9 6 6 5 4 7 8 10 12 13 14 12 9 11 10 6 8 8 8 12 11 6 9 10 7 11 15 16 16 15 16 16 16 15 13 12 12 12 13 15 14 14 14 11
11 16 20 22 24 25 24 23 21 21 21 19 18 16 14 13 13 14 14 15 16 13 11 11 10 10 9 8 8 9 9 9 9 8 7 9 11 9 9 10 8 6 7 8 5 4 6 7 8 11 11 11 11 8 8 7 4 7 8 6 9 11 8 11 8 7 10 14 16 15 14 14 17 16 17 15 12 14 14 12 13 13 14 13 10
11 14 18 22 28 30 27 25 24 23 22 20 17 14 13 14 14 14 14 14 14 12 11 11 10 9 9 8 8 9 9 9 9 8 9 11 11 9 10 9 6 7 9 9 6 6 8 7 6 9 9 8 10 8 6 7 5 5 7 6 5 7 7 10 10 7 10 11 12 13 14 14 14 15 18 17 12 15 16 15 12 11 13 17 16
10 12 16 22 28 29 27 24 23 24 23 21 19 16 14 14 14 14 14 14 14 12 10 11 10 9 9 8 8 9 9 9 9 9 10 11 11 10 11 9 7 8 8 6 8 9 8 7 6 7 8 8 9 8 7 8 7 6 7 6 4 4 4 6 8 7 8 9 10 12 13 14 13 13 15 17 14 13 17 19 17 11 13 20 23
12 13 18 24 27 27 26 25 23 22 22 22 21 19 16 14 14 14 14 14 14 13 11 11 11 10 9 9 8 9 10 9 10 10 9 10 11 11 11 9 8 10 8 6 8 8 7 8 7 7 8 8 9 9 9 9 9 9 9 7 7 6 2 3 6 7 8 9 11 12 13 14 14 14 15 16 17 16 16 20 21 17 15 20 24
15 17 20 24 26 26 25 25 24 23 21 21 20 18 17 14 13 14 13 13 14 13 11 12 13 11 9 9 9 11 11 11 12 11 10 10 9 9 10 8 7 8 7 6 7 7 6 8 9 10 10 10 10 10 10 11 10 10 10 9 9 9 8 6 6 8 10 11 12 13 14 15 15 16 16 18 20 20 17 18 21 21 20 21 23
13 17 22 24 24 25 25 25 25 24 23 23 20 18 17 16 13 13 13 12 13 12 12 13 14 12 11 11 12 13 13 13 14 13 12 10 9 8 8 7 5 5 5 5 5 6 5 7 9 10 10 11 12 12 12 12 12 11 10 10 11 10 10 9 8 9 11 12 12 15 17 17 16 16 17 19 20 21 20 20 21 22 22 24 25
10 14 19 21 22 23 24 24 24 24 24 24 23 21 21 19 16 15 14 13 13 13 12 13 13 12 13 14 15 16 14 14 15 14 13 12 11 9 8 6 5 4 5 5 6 6 7 9 9 10 10 10 11 12 12 11 11 12 11 11 12 12 12 12 11 11 12 12 12 14 16 19 19 18 18 19 19 21 22 21 22 24 25 26 26
11 12 13 15 17 19 21 22 22 23 23 22 23 23 23 22 21 20 18 16 16 16 15 15 15 14 13 13 15 16 14 15 16 15 14 14 12 10 8 6 5 6 6 7 8 9 10 12 12 10 10 10 11 11 11 11 11 11 11 12 12 13 13 13 13 13 13 13 13 14 13 15 19 21 22 21 20 22 24 24 23 24 25 26 27
11 12 10 10 12 14 17 19 20 21 22 22 22 22 22 23 23 22 21 19 19 19 18 18 18 17 15 14 15 16 15 15 17 16 15 15 13 11 9 7 6 6 8 9 10 11 11 14 14 12 9 10 11 11 11 11 11 11 12 12 12 13 13 13 14 15 16 16 17 18 16 15 16 19 21 21 21 23 26 28 28 27 27 27 27
12 13 11 8 9 10 13 16 18 19 20 21 21 21 21 23 22 21 20 19 18 18 18 18 17 17 16 13 11 12 13 14 16 17 16 14 12 11 10 9 7 7 7 9 10 11 13 14 13 12 11 11 11 10 11 11 11 12 12 12 13 13 13 14 15 16 17 19 21 22 21 21 20 18 17 18 20 22 24 27 30 31 31 30 28
15 15 14 12 10 8 7 9 12 14 16 17 19 20 21 21 21 19 17 15 15 15 15 14 13 13 13 11 9 9 9 9 11 12 11 10 8 8 9 10 11 9 8 10 10 11 13 13 12 13 14 14 13 12 11 10 10 11 12 13 13 14 14 15 16 17 18 19 21 22 22 24 25 23 21 20 21 22 23 24 26 28 30 31 30
15 16 17 16 14 12 11 9 8 9 11 13 16 18 18 16 17 17 16 14 14 14 13 11 11 10 10 9 8 7 6 7 9 10 9 8 9 11 13 14 17 16 14 14 15 14 13 15 16 17 17 15 15 15 13 11 11 12 13 14 15 16 16 17 18 19 20 20 20 20 20 22 25 26 27 25 24 24 23 23 24 25 25 26 28
15 14 15 15 15 15 14 14 13 10 8 9 11 13 13 13 15 17 14 12 12 12 12 12 11 11 10 8 8 10 10 10 11 12 13 14 15 15 15 16 18 19 17 17 17 17 17 17 17 18 18 17 16 15 14 13 13 14 15 17 18 19 19 20 21 21 21 20 20 20 21 22 23 25 27 27 26 26 25 24 25 27 27 26 25
17 16 15 15 15 15 15 15 15 14 11 10 9 9 8 10 16 17 13 10 10 11 13 14 13 13 12 10 10 12 13 14 14 13 14 15 15 15 15 15 16 17 17 17 17 17 18 18 17 16 15 13 13 14 15 15 15 17 18 20 20 19 20 21 22 22 22 20 19 20 21 22 23 24 25 24 24 25 25 25 25 25 26 25 24
19 17 16 15 14 14 13 13 13 13 13 13 12 10 9 9 13 16 13 11 11 12 14 15 14 13 12 10 10 11 11 12 13 13 13 14 14 15 16 16 16 16 16 16 16 17 16 14 13 13 12 10 11 13 15 15 16 17 19 20 20 19 19 20 21 23 22 20 20 20 21 21 22 23 22 22 23 23 24 25 25 23 24 25 25
18 17 16 15 15 14 14 14 13 11 11 13 13 13 13 11 11 12 12 12 13 13 13 13 13 14 12 10 9 10 11 12 13 13 14 14 14 15 15 15 15 15 15 15 14 14 15 14 14 15 14 12 11 11 12 13 14 14 15 16 17 16 16 17 19 22 22 21 21 20 20 21 21 21 22 22 23 23 23 24 25 24 25 25 24
16 16 15 15 15 15 15 16 16 15 12 12 13 14 14 12 11 11 9 8 9 10 11 10 11 12 12 10 9 10 11 12 12 13 13 13 13 13 13 13 13 13 13 11 9 8 9 12 13 12 11 10 9 9 10 10 10 10 11 13 13 14 15 16 18 20 20 19 19 19 19 20 21 21 20 19 20 21 20 20 22 21 21 21 21
14 14 13 13 13 13 13 14 16 17 15 14 14 15 14 13 11 9 7 6 6 6 5 5 5 6 7 7 7 8 9 9 9 10 10 10 10 10 9 8 7 8 8 7 7 6 6 6 8 8 7 7 8 9 9 10 10 10 12 13 14 15 16 17 18 19 20 19 18 16 15 16 17 16 15 15 17 20 19 18 19 20 20 19 18
11 11 12 12 13 13 12 12 13 14 15 15 16 18 19 17 14 11 10 10 10 10 8 5 4 4 5 5 6 6 6 5 6 6 6 7 6 6 6 5 5 5 6 7 8 9 9 8 9 9 9 10 11 12 12 12 13 14 14 15 16 17 18 19 19 20 19 20 19 18 16 16 14 11 11 13 17 19 19 19 19 19 20 20 17
9 9 9 10 10 10 10 10 11 11 12 13 14 17 18 18 15 13 12 12 11 10 9 8 7 5 4 2 3 4 4 5 6 6 6 6 6 6 7 7 7 7 8 9 11 12 12 13 13 14 14 14 16 17 18 18 18 18 18 18 18 19 20 20 21 20 20 20 20 19 19 20 18 14 15 18 21 22 22 22 20 18 18 20 20
7 7 8 9 9 8 7 8 8 8 9 9 9 11 13 14 16 16 15 14 13 12 10 9 7 7 6 3 1 2 3 6 7 6 6 7 9 10 10 10 11 11 12 13 14 15 16 17 17 18 19 20 21 22 22 21 21 21 20 20 20 20 20 21 21 19 19 20 20 20 20 19 20 20 20 23 25 26 26 24 22 19 17 18 21
6 7 8 9 9 8 7 7 7 6 6 5 6 7 7 9 11 12 12 13 13 12 12 11 10 8 6 3 2 4 5 10 10 9 10 10 11 11 12 13 13 13 14 15 16 16 17 17 18 19 20 20 21 21 21 21 21 21 20 20 21 21 21 21 20 18 17 18 19 20 20 20 21 22 24 26 28 29 28 27 26 22 19 17 19
8 9 10 10 9 7 6 6 6 5 4 3 3 4 6 6 6 7 7 8 9 9 9 10 9 8 6 4 4 1 7 11 12 12 12 11 10 10 10 11 11 11 12 12 13 13 13 13 13 14 13 13 14 14 15 15 15 16 17 17 18 20 21 21 20 20 20 20 20 20 21 21 22 23 25 26 27 27 28 28 27 25 22 20 20
11 12 13 12 11 9 9 9 8 7 6 5 5 5 5 5 5 5 5 4 4 4 5 7 8 7 6 6 6 6 9 10 11 11 10 9 9 10 10 10 11 11 11 11 11 11 12 12 12 12 11 11 11 12 13 13 13 15 16 15 15 16 16 17 18 18 19 20 20 19 20 21 23 24 25 26 25 25 26 26 25 24 23 20 19
12 12 12 13 12 11 12 13 12 12 11 9 9 9 8 8 7 6 6 5 3 3 2 3 5 5 5 5 7 9 11 11 11 11 10 9 10 10 10 11 11 12 12 12 12 12 11 11 10 11 12 14 15 15 16 16 15 15 17 17 17 16 13 13 15 15 15 16 15 14 15 19 22 23 24 25 24 24 23 22 22 21 18 17 17
10 11 12 12 11 11 11 11 11 12 12 11 11 11 10 9 8 7 7 6 4 3 3 2 2 3 4 4 5 8 10 10 11 11 10 11 11 10 10 11 11 11 11 11 10 9 8 8 9 11 12 13 14 13 12 10 9 10 13 15 16 16 15 15 15 14 13 13 13 12 13 16 19 21 23 24 23 23 22 22 21 18 15 14 15
10 11 12 12 12 11 10 10 9 9 10 10 10 10 9 9 8 8 7 6 5 4 3 2 1 3 4 5 6 7 8 9 9 9 9 8 8 8 7 7 8 9 8 7 7 7 8 9 9 8 7 8 9 8 7 6 6 8 8 8 10 14 16 16 16 15 13 12 12 12 13 15 18 21 22 23 23 22 22 21 19 15 13 14 13
11 10 11 11 11 10 10 10 9 8 9 9 9 10 10 9 8 8 7 7 6 6 5 5 4 4 5 5 6 6 7 7 6 6 5 5 5 5 6 8 10 11 10 8 8 10 9 6 4 4 5 6 7 7 7 7 7 7 9 8 7 10 14 15 15 16 15 13 14 15 15 16 19 21 22 23 23 21 19 18 16 15 13 13 12
7 9 10 10 9 9 9 8 7 7 8 7 7 7 8 8 9 9 9 9 10 10 10 11 9 8 8 7 7 6 5 5 5 5 5 5 6 8 9 9 11 11 10 9 10 10 7 2 1 3 6 7 9 9 8 7 7 8 10 11 11 10 12 14 15 16 15 14 16 17 17 17 19 21 23 24 22 19 17 16 15 14 12 12 12
6 8 10 10 8 7 7 7 8 7 7 6 5 5 5 5 7 7 8 10 12 13 13 14 13 13 13 12 9 7 7 6 6 6 7 7 8 9 9 9 9 10 10 8 7 7 6 6 6 7 9 10 11 11 10 10 10 9 9 11 12 11 11 13 14 14 14 14 16 18 18 18 19 20 22 21 19 17 15 14 12 12 12 12 13
8 6 6 5 5 5 5 6 7 7 7 7 6 5 6 6 6 5 5 7 9 10 12 13 13 13 13 12 9 8 9 9 8 8 8 8 7 8 9 10 9 8 7 5 5 7 8 9 8 8 9 10 10 11 11 11 11 11 11 13 14 13 12 13 13 13 12 13 16 18 18 17 17 18 19 17 15 13 12 12 11 10 10 8 6
7 5 4 4 3 2 3 4 4 6 7 8 7 7 8 7 6 5 4 5 7 7 8 10 11 11 12 10 7 9 11 11 8 6 7 7 6 7 9 11 9 6 4 5 7 7 7 9 8 8 9 10 10 10 11 11 10 11 11 11 12 12 12 14 15 15 14 14 16 18 17 15 15 17 15 13 11 10 10 9 9 6 3 1 2
6 6 6 7 7 5 4 4 5 6 8 8 6 6 6 6 6 7 7 6 8 8 6 6 7 9 10 7 7 10 12 10 7 3 4 4 3 3 5 6 6 4 2 5 6 6 7 9 9 8 9 10 10 11 13 14 14 13 12 10 11 11 11 13 15 15 15 16 17 17 15 13 14 13 11 9 7 4 2 1 1 2 3 4 3
5 5 6 7 7 7 5 5 6 6 7 6 4 4 6 6 6 7 9 8 7 7 6 5 5 7 6 4 7 10 10 7 5 4 3 2 1 2 2 3 3 3 2 5 6 6 7 9 8 7 9 10 10 10 12 12 12 12 12 11 11 10 9 10 11 11 12 12 12 10 9 9 10 8 5 2 3 5 6 6 6 6 5 4 4
3 2 3 5 5 7 7 6 6 7 7 5 5 4 7 7 6 6 6 6 6 6 6 5 5 6 7 8 8 8 8 6 6 6 7 7 8 8 7 6 4 3 3 5 8 9 10 10 9 8 8 9 9 9 9 9 9 10 10 9 9 9 9 8 7 8 7 6 5 5 7 7 6 4 4 7 8 7 6 5 5 3 1 1 3
1 1 1 2 2 6 8 6 6 4 4 4 5 5 5 6 5 5 5 5 5 5 5 5 6 8 10 10 9 9 10 10 10 10 9 9 10 11 11 12 11 9 8 10 12 14 14 13 13 13 12 11 10 9 9 9 9 9 9 8 8 9 10 10 9 7 4 1 2 4 3 3 4 7 8 7 7 8 8 7 6 5 3 3 5
1 0 1 3 4 4 5 6 7 6 2 5 4 5 5 3 5 6 5 4 4 5 5 5 7 11 13 12 10 11 11 10 9 8 8 8 10 11 12 14 15 14 13 14 15 15 16 16 16 17 17 17 15 14 12 11 9 9 8 8 8 8 8 8 6 3 2 3 4 5 6 7 8 8 5 5 7 8 5 4 5 4 4 5 5
1 0 1 2 3 2 3 4 6 6 2 4 6 4 5 5 5 5 5 4 4 4 5 5 6 9 12 11 10 11 10 7 6 8 11 12 12 12 13 14 15 14 14 14 14 14 15 15 15 16 17 18 18 18 17 16 13 11 8 7 7 7 6 5 4 6 6 6 7 7 7 6 6 4 2 3 5 5 4 2 2 1 2 6 6
2 2 1 1 1 1 2 1 3 5 3 0 4 5 4 3 3 4 4 4 4 4 4 5 6 7 9 9 7 6 7 6 7 10 12 13 12 12 12 12 12 12 12 12 11 12 12 12 13 14 15 16 17 18 18 18 18 15 11 8 7 6 6 4 2 6 7 6 6 5 4 4 3 2 2 1 2 2 2 3 3 2 3 6 8
4 4 2 1 3 2 2 1 3 5 2 5 6 5 4 2 2 2 2 3 3 3 3 5 8 8 8 8 7 5 6 9 10 10 10 10 10 10 10 9 9 9 9 9 9 9 10 11 12 13 14 15 15 16 16 16 17 17 15 12 10 8 7 5 3 4 5 4 3 2 1 2 1 3 3 3 4 3 2 3 4 3 3 6 8
3 4 2 2 4 3 2 2 3 2 3 4 3 2 3 1 1 1 2 3 3 2 2 4 8 10 9 8 7 6 5 6 7 7 7 6 6 6 6 6 6 6 6 7 7 7 8 9 9 11 12 13 13 14 14 14 14 15 15 14 12 10 8 6 5 4 3 1 1 2 2 2 4 7 7 6 6 7 5 4 4 3 3 4 5
4 4 3 3 4 4 3 2 4 3 1 2 2 1 1 0 1 1 1 2 3 2 2 2 4 7 10 10 8 6 4 3 3 2 2 3 3 3 3 3 3 4 4 5 5 5 6 7 8 9 10 11 11 12 12 11 12 11 11 11 10 9 7 6 4 3 2 2 3 3 2 2 5 8 8 5 3 3 4 4 3 4 6 6 4
4 4 4 4 5 4 4 4 4 4 2 1 1 3 3 2 3 3 4 4 3 4 2 1 1 2 6 10 9 6 4 3 4 5 5 3 1 0 1 2 2 3 3 4 5 5 6 7 8 9 9 10 10 10 9 9 9 9 9 8 8 7 6 5 5 4 4 3 3 2 1 1 2 3 3 1 2 1 1 1 1 3 6 6 5
3 4 4 4 5 5 5 6 6 5 4 3 4 5 4 2 2 4 5 5 3 3 3 2 1 1 0 3 5 5 4 3 2 3 6 8 6 3 2 3 4 4 4 5 6 6 6 7 8 8 9 10 10 9 8 8 8 7 7 7 6 5 5 4 4 5 4 3 4 3 2 1 1 2 2 2 3 4 3 2 2 2 2 4 5
3 4 4 4 5 5 6 7 6 4 3 4 4 4 3 1 1 3 3 2 1 1 2 2 3 2 1 0 1 1 1 1 1 1 4 8 8 5 3 4 5 5 5 5 6 6 6 6 7 8 8 9 9 9 9 9 8 8 7 7 6 5 5 5 5 5 5 5 5 5 5 4 3 4 7 7 6 6 6 6 5 5 4 4 5
3 4 4 4 5 6 6 6 6 5 6 6 5 4 4 4 3 3 3 2 2 3 4 4 3 3 3 3 2 2 0 2 3 2 3 7 7 6 4 4 4 4 4 5 5 6 6 6 7 7 8 8 9 9 9 9 9 9 8 8 7 6 6 6 6 6 6 7 7 7 7 6 4 5 7 8 6 5 5 7 7 6 5 5 4
4 4 4 5 5 5 6 6 6 6 7 7 6 5 6 7 6 5 3 4 5 5 5 5 4 3 4 4 3 3 5 5 3 1 6 9 9 7 5 4 3 3 4 4 5 5 5 6 7 8 9 8 8 8 9 9 10 10 10 10 9 7 6 5 5 6 7 8 7 7 7 6 5 4 4 5 5 4 5 7 7 5 5 5 3
Wind_Direction
191 196 189 174 167 166 166 165 163 162 169 174 172 174 176 173 174 172 170 172 163 155 164 165 145 137 139 141 146 148 146 143 138 141 136 119 116 128 116 112 121 114 110 114 130 170 151 154 162 163 169 169 159 145 131 121 128 149 168 169 170 177 170 173 174 159 154 170 173 178 164 161 183 210 211 195 194 188 177 179 184 180 177 175 174
172 187 185 172 167 166 167 167 160 158 167 168 164 168 174 175 174 168 168 170 157 152 165 155 136 140 141 139 151 150 143 145 143 138 133 129 142 138 113 114 140 131 122 129 148 149 143 155 154 154 165 159 145 138 129 127 134 138 157 166 168 182 182 180 180 173 171 172 173 185 181 172 190 215 223 207 202 197 184 186 191 188 187 189 187
162 168 162 161 169 168 169 170 163 162 168 165 162 168 174 176 170 162 162 159 150 154 165 149 137 146 145 145 153 146 146 151 139 137 152 159 148 129 117 144 149 117 114 132 138 138 146 151 146 150 158 148 140 146 144 140 145 155 163 159 159 176 197 185 183 184 188 185 180 191 191 179 193 217 225 218 221 218 201 195 198 196 196 200 202
159 160 155 162 171 171 173 173 168 169 172 171 172 177 179 176 165 160 160 151 149 159 162 146 143 147 145 148 147 143 153 152 137 145 165 156 140 130 134 152 128 104 116 139 135 139 145 144 146 154 155 144 142 154 156 152 161 175 176 165 169 183 185 177 195 214 194 184 184 198 200 181 188 220 228 219 222 226 218 204 201 207 206 200 205
152 155 159 168 170 168 170 169 168 169 170 177 184 183 177 166 154 152 153 150 153 159 154 146 147 147 145 148 144 146 156 150 143 154 153 138 135 135 135 132 121 122 132 128 127 133 127 127 142 149 146 145 150 153 163 172 161 163 179 184 188 201 187 162 182 223 202 184 182 200 214 190 183 211 230 227 217 214 220 218 210 215 213 206 216
152 149 159 166 165 165 167 169 172 169 167 178 184 178 166 155 149 149 149 152 154 153 150 150 150 148 148 149 148 150 153 149 148 150 143 137 136 140 140 133 137 151 135 124 125 119 118 127 139 142 144 157 164 160 174 187 166 151 179 193 197 218 212 176 168 180 191 190 186 200 220 210 191 203 226 238 227 205 212 227 228 217 210 217 231
161 160 163 165 164 166 169 170 170 166 169 175 172 166 164 157 152 151 151 155 155 151 156 156 150 149 149 151 156 153 149 148 150 147 143 142 144 150 150 142 142 142 134 135 138 128 135 145 139 146 159 171 176 175 178 182 184 183 184 193 203 219 242 215 193 187 191 201 205 205 215 221 209 200 216 238 240 213 208 222 231 222 213 225 231
167 170 167 166 166 166 167 168 167 166 171 172 167 165 163 156 154 154 154 159 153 150 162 160 148 149 152 154 158 154 149 151 152 151 153 155 157 159 154 148 149 145 142 150 147 141 154 158 156 169 177 182 187 189 187 186 195 201 193 189 196 194 197 215 212 217 217 219 225 218 214 222 223 210 209 222 227 220 210 216 226 227 224 230 233
173 167 161 166 169 168 168 169 167 167 168 167 165 165 158 153 160 161 160 163 153 150 162 160 149 148 151 153 156 157 160 163 162 159 162 162 160 158 155 155 164 159 152 159 160 152 160 175 184 190 192 199 201 199 198 198 202 208 205 205 209 204 197 198 211 225 226 227 232 227 220 225 231 228 222 219 224 229 225 219 224 229 227 229 234
166 154 152 159 165 169 172 173 170 169 168 163 160 161 157 155 160 162 164 162 152 152 162 158 149 148 151 153 159 168 173 172 168 168 169 165 158 160 164 163 172 177 169 184 192 172 178 208 211 207 208 211 216 219 216 213 215 217 218 221 224 223 221 224 231 232 232 237 240 235 229 227 228 230 227 225 229 235 233 227 226 229 229 229 233
137 137 148 155 161 169 175 177 175 173 171 166 162 163 162 158 158 163 166 159 151 152 157 156 155 158 160 159 162 173 179 175 173 176 177 172 165 167 175 169 177 204 204 213 224 209 210 231 234 230 229 226 223 225 227 229 231 231 235 236 233 234 236 239 239 237 239 248 252 249 244 237 233 232 230 229 231 235 236 236 234 232 231 231 231
135 136 153 162 165 171 176 180 180 178 176 174 170 168 165 163 165 169 167 161 157 156 156 159 162 164 168 172 174 179 183 178 179 182 183 182 179 177 177 170 182 220 229 226 234 235 231 236 240 240 240 241 240 237 235 238 240 242 246 247 245 245 248 250 250 248 248 252 255 259 258 250 245 243 240 237 238 240 239 237 238 238 236 236 234
128 128 144 169 178 179 179 180 182 183 183 179 176 174 172 170 170 170 168 165 162 162 163 165 164 162 168 178 185 187 187 184 186 189 189 190 191 189 184 178 186 218 239 242 248 259 258 253 256 260 254 246 246 249 250 250 250 251 252 252 253 254 256 260 263 262 261 259 257 256 255 254 254 251 246 243 243 246 245 241 241 242 240 241 243
117 114 116 135 159 172 183 186 187 190 190 184 180 179 177 176 173 170 169 167 164 165 168 170 167 166 170 177 184 188 189 188 189 193 197 201 206 208 208 212 216 226 251 264 266 271 272 269 273 275 268 261 256 253 255 259 262 264 264 263 265 265 264 267 269 270 270 267 263 259 254 253 255 253 249 247 246 248 249 247 245 245 246 246 246
110 109 107 104 109 125 153 179 189 194 195 190 185 182 181 181 178 173 172 173 174 175 175 173 172 175 179 181 178 175 175 178 184 192 202 211 224 244 256 261 260 256 262 274 278 278 278 283 287 279 274 277 277 266 258 259 265 270 274 276 277 277 275 276 278 279 278 274 269 265 259 255 254 252 250 249 247 245 247 249 248 247 250 250 247
100 102 107 109 111 112 116 132 154 173 183 184 184 184 185 185 182 180 178 175 175 176 172 167 169 178 184 183 185 187 182 185 194 203 214 228 248 268 276 276 275 274 271 272 276 277 277 283 286 281 279 283 283 278 272 264 256 259 269 278 281 282 282 283 284 282 279 277 275 274 270 263 257 254 253 253 253 252 253 253 250 246 248 249 246
90 92 97 103 110 113 116 123 127 134 151 163 170 179 186 188 185 182 178 173 172 175 177 178 182 194 202 202 211 222 223 222 224 227 236 247 258 264 266 264 267 271 272 272 275 276 276 280 283 282 283 283 279 279 279 273 266 266 272 277 279 282 283 283 283 281 276 276 279 280 277 271 265 261 258 257 258 259 260 262 260 254 251 249 248
85 90 94 95 99 100 103 111 115 117 124 129 137 153 166 180 182 176 167 169 181 191 198 201 205 211 217 221 223 224 226 231 237 240 244 252 258 260 264 264 264 267 270 272 276 279 281 284 283 283 287 283 273 271 274 274 273 273 274 275 277 281 282 282 283 281 275 272 276 276 274 272 270 266 262 261 262 263 265 267 265 260 257 256 258
84 86 91 95 98 95 92 97 105 114 122 122 123 129 133 153 176 178 176 183 196 204 208 211 213 217 222 228 229 229 231 235 239 242 245 251 255 257 262 265 267 269 272 274 279 281 285 290 290 289 294 292 282 278 277 277 276 275 275 276 279 281 281 282 283 280 274 269 269 270 271 273 271 268 265 264 265 265 264 262 261 262 265 265 263
94 93 93 95 97 96 93 91 93 101 117 125 125 127 126 129 150 171 185 197 204 206 208 212 217 222 228 232 233 237 242 244 245 249 253 256 258 260 261 263 265 270 275 280 287 291 292 293 290 286 285 286 285 281 278 279 281 281 281 281 281 281 281 282 282 280 279 278 275 274 275 277 277 273 270 268 267 267 265 264 265 268 267 263 259
94 97 97 96 95 95 97 98 97 94 100 115 124 126 125 123 127 138 152 174 189 196 204 211 214 216 218 221 223 229 238 244 248 253 255 255 255 258 262 266 268 271 276 280 285 294 298 292 286 282 280 279 280 277 278 283 287 290 292 292 291 286 282 279 277 276 278 281 284 286 289 289 288 284 279 276 271 266 262 262 265 265 261 258 254
91 93 95 96 93 92 96 105 107 104 103 108 115 119 116 111 108 110 114 123 133 143 164 185 189 188 190 196 206 214 223 231 236 240 245 251 255 259 265 270 267 265 270 269 260 262 269 269 271 274 271 272 281 285 286 289 290 293 296 296 294 290 284 279 276 275 276 278 280 286 291 293 294 295 294 287 273 267 267 265 261 254 247 246 246
94 97 98 99 99 97 96 99 104 109 113 113 115 117 113 104 96 89 87 89 85 80 79 78 93 126 145 162 183 193 201 212 215 215 221 231 241 249 254 259 256 252 252 252 253 259 262 263 269 273 268 270 280 285 286 286 288 288 287 286 286 284 281 280 278 278 278 278 278 278 275 273 276 279 275 269 266 268 271 270 266 256 245 239 236
92 94 92 91 95 101 104 103 102 108 114 116 120 123 121 116 113 108 102 97 88 78 67 52 48 64 79 94 189 199 210 219 215 213 223 234 242 247 248 253 258 259 255 252 255 262 268 272 276 276 273 273 277 280 282 283 284 283 281 280 278 277 276 278 279 278 278 277 277 276 271 267 264 255 244 246 252 255 258 263 268 267 256 247 243
89 88 86 83 81 82 91 99 103 107 113 119 126 129 128 131 134 135 134 132 130 126 121 110 96 92 91 80 15 334 291 254 238 241 261 271 272 273 273 273 274 275 272 268 266 267 269 273 276 276 276 278 279 282 284 285 284 283 281 278 276 274 273 274 275 277 278 277 277 277 273 269 265 258 250 248 248 249 252 258 262 265 263 256 253
86 84 80 80 81 81 86 97 103 110 122 135 143 145 143 143 147 149 149 146 144 142 141 140 133 124 126 126 51 11 298 275 277 289 297 295 290 287 287 287 286 285 282 280 280 280 279 280 282 283 284 285 286 287 289 289 289 287 283 280 276 273 272 273 273 272 270 268 269 271 273 272 270 265 260 255 250 249 252 255 254 257 263 264 259
93 94 90 85 81 80 87 97 101 102 105 111 128 144 149 149 155 160 158 153 155 158 160 159 149 132 123 107 81 84 257 270 290 304 308 309 307 303 301 299 297 295 293 293 296 297 297 299 300 302 305 307 307 307 307 307 307 304 299 292 284 276 272 273 272 269 265 263 264 268 272 272 269 264 257 251 247 247 250 250 250 253 260 265 260
79 81 83 80 74 68 70 77 82 82 79 74 74 90 112 122 134 144 145 145 157 165 176 182 178 173 170 157 156 204 244 266 288 302 311 317 314 313 314 313 312 310 309 311 314 316 319 321 320 322 329 336 341 344 342 340 340 340 335 325 314 302 290 282 280 277 272 270 270 270 270 269 266 262 257 252 249 247 246 247 250 254 258 259 255
78 77 76 73 68 63 61 63 71 77 77 74 75 81 90 93 97 108 113 108 102 97 107 165 192 216 237 224 209 225 248 270 286 298 305 304 302 306 307 307 310 312 311 313 317 321 328 334 338 346 353 355 355 354 351 349 348 351 353 348 340 335 325 308 300 294 287 285 286 280 272 268 266 264 262 257 252 247 244 245 250 252 250 247 248
76 82 83 81 78 76 71 64 63 67 67 65 69 74 80 85 88 93 97 95 95 96 95 112 190 241 270 270 249 246 256 271 281 289 294 296 298 303 305 307 313 315 316 323 330 336 351 6 9 7 1 355 350 345 341 343 345 350 358 358 348 338 330 320 313 308 299 294 294 290 283 277 272 268 265 261 256 251 248 248 250 250 249 254 262
76 76 78 82 81 81 86 86 78 67 58 54 55 59 65 75 81 82 84 85 82 79 78 64 330 283 278 279 275 271 273 280 286 291 295 299 304 313 324 339 349 351 355 10 25 26 22 17 10 1 349 346 350 343 328 323 320 317 325 345 350 341 333 327 321 316 309 301 296 295 290 280 272 267 263 259 255 250 247 247 250 254 262 271 274
79 77 74 79 79 75 78 85 89 87 77 63 53 49 46 47 53 56 57 57 52 43 33 21 2 336 317 309 302 295 293 299 307 312 317 326 341 3 29 41 42 41 46 54 46 29 17 12 9 347 326 325 335 341 339 337 328 309 297 299 319 333 331 325 318 313 310 305 302 303 298 282 271 267 264 260 255 250 247 250 256 264 268 266 261
96 91 80 74 72 72 73 75 82 98 105 101 92 76 59 47 41 36 31 31 31 24 15 9 4 1 360 350 337 333 339 346 351 357 5 20 48 66 65 59 57 54 50 44 33 17 359 336 301 303 299 301 308 319 329 331 322 311 299 292 290 298 308 313 312 309 307 304 303 307 309 297 279 269 262 257 252 250 253 258 263 264 261 257 257
122 110 97 87 80 77 81 79 76 79 86 93 105 113 101 77 54 40 33 29 23 15 10 9 8 9 10 9 8 17 29 30 31 42 52 62 77 81 68 58 56 50 41 37 28 2 327 300 288 283 282 287 295 298 299 300 300 299 293 285 280 283 297 309 311 308 306 306 308 311 311 302 283 266 257 252 251 254 260 262 262 262 264 267 267
85 85 82 89 97 103 107 99 90 85 77 70 70 74 75 70 58 55 61 54 37 20 8 6 7 6 4 6 22 43 48 45 53 72 85 88 96 99 87 75 66 50 34 13 344 330 319 310 310 312 311 312 314 310 304 301 301 297 289 285 285 287 295 302 302 299 298 300 304 309 309 298 277 262 255 253 256 260 261 263 266 266 265 266 262
92 82 55 44 43 78 113 104 97 97 85 70 62 62 65 68 61 50 67 91 82 56 21 8 7 359 350 359 36 58 51 46 54 87 113 119 127 132 113 94 80 63 24 350 346 349 340 335 348 4 359 354 355 346 338 340 340 331 318 307 302 299 299 298 299 300 303 302 301 303 302 286 264 255 254 256 262 267 269 270 269 259 240 178 105
122 112 91 64 33 25 65 90 92 97 88 75 71 72 72 75 60 35 34 68 89 75 42 20 5 340 335 1 68 73 55 38 30 53 126 151 175 176 150 133 127 126 67 10 14 21 5 358 12 22 11 6 4 351 347 355 358 354 347 334 320 312 303 294 291 292 296 297 296 296 291 271 253 250 256 263 268 274 285 314 15 55 51 48 59
134 118 112 104 74 46 59 82 80 77 73 62 58 75 79 79 70 50 40 46 63 63 42 10 334 324 343 44 93 87 66 36 350 351 39 66 19 42 116 161 171 153 82 22 17 20 13 12 20 18 6 6 4 352 350 355 355 353 351 339 327 324 318 305 296 294 297 301 300 291 270 250 245 249 253 224 122 103 96 87 71 54 42 46 53
164 161 160 143 100 47 44 69 78 75 72 49 22 48 77 78 70 66 61 53 54 57 43 12 350 8 47 78 102 97 69 30 358 16 40 41 39 43 46 47 52 61 44 22 23 28 30 27 22 12 2 357 349 343 343 345 346 350 351 342 339 349 359 2 354 343 334 323 294 253 234 235 239 210 146 128 112 90 70 65 70 67 51 18 8
114 213 243 165 83 22 25 47 54 56 82 73 30 27 68 90 85 74 66 61 63 68 58 34 26 45 65 80 91 84 63 43 36 41 42 46 54 52 44 46 57 62 58 54 51 50 50 48 43 39 33 23 10 358 347 341 342 348 348 345 352 9 24 29 22 9 1 330 248 228 212 200 171 145 135 128 104 74 47 39 46 50 36 12 355
95 16 48 92 83 27 13 17 6 360 68 116 83 22 12 57 96 96 81 67 72 81 80 64 51 58 70 77 77 72 67 62 61 59 50 58 77 76 62 57 62 64 65 67 67 63 61 57 54 51 48 42 38 33 22 10 1 353 346 339 345 4 25 34 34 42 105 156 167 155 142 139 137 130 124 123 116 106 78 24 3 356 359 356 345
158 232 32 62 62 42 41 30 5 354 17 132 123 87 33 23 50 83 95 96 91 90 102 100 75 62 66 72 78 82 82 81 92 93 80 75 82 86 79 73 71 68 66 67 67 67 65 58 52 51 50 47 44 42 38 34 29 20 6 351 352 12 35 55 96 132 142 147 148 144 142 141 136 129 140 146 142 149 143 84 35 283 311 347 345
186 181 200 304 304 317 105 85 323 311 304 166 123 114 95 53 49 65 82 98 96 90 100 107 93 71 60 55 63 91 104 104 106 104 95 89 87 84 80 78 75 71 68 65 63 65 63 56 49 48 46 45 44 41 38 38 38 37 34 31 37 55 61 57 112 151 152 142 130 130 147 166 167 183 211 241 296 252 184 96 55 258 280 343 346
201 193 195 250 264 252 159 154 296 309 27 86 94 99 101 109 122 106 93 100 102 98 100 103 100 95 81 58 45 63 103 110 108 105 101 99 96 87 77 74 72 69 69 67 64 62 57 50 45 41 37 37 38 37 35 35 35 38 41 45 56 73 76 65 89 147 154 139 118 126 187 229 290 323 316 330 0 23 65 36 7 323 315 349 346
209 203 200 227 248 248 198 192 261 302 51 59 57 90 98 86 241 176 130 120 112 93 81 104 110 111 107 87 62 57 82 105 115 117 113 105 97 88 80 72 65 62 63 61 56 50 45 42 39 35 33 31 28 26 27 27 28 31 37 42 49 59 69 76 95 123 131 119 328 327 333 347 14 22 18 20 39 45 19 340 345 352 333 336 347
225 225 222 226 236 243 241 246 260 267 335 357 318 265 159 176 262 238 94 104 128 119 56 48 104 123 124 115 95 67 48 42 44 73 113 117 104 88 75 62 53 51 50 47 43 37 32 30 26 23 24 24 21 18 17 17 18 20 24 29 34 40 46 50 51 55 56 8 335 341 11 36 37 36 36 43 65 43 343 312 310 324 313 302 315
204 212 218 223 229 237 236 239 265 282 283 295 286 258 231 221 243 286 337 14 99 145 145 36 23 130 132 126 119 108 84 46 11 353 338 315 273 229 350 353 17 32 24 18 14 7 3 6 6 5 5 7 8 9 8 8 10 12 11 11 14 16 17 16 9 360 358 355 343 340 50 74 32 27 38 73 183 207 333 3 305 326 337 343 341
195 209 227 228 230 245 248 240 247 266 271 257 257 253 239 222 249 285 323 7 60 136 164 158 172 238 143 118 122 125 127 124 92 3 326 311 299 284 291 311 326 338 340 342 346 347 347 350 353 353 356 358 359 1 3 3 1 359 357 355 353 349 344 339 334 330 325 324 319 305 277 249 240 217 211 231 249 242 229 223 240 260 333 2 348
206 218 237 241 238 251 259 256 258 264 261 256 261 257 240 210 210 235 261 306 5 196 218 205 184 179 193 274 115 115 137 187 138 130 295 300 306 310 295 297 313 329 336 343 349 350 350 352 353 351 353 355 354 352 353 353 350 347 344 337 327 321 317 309 304 305 301 295 297 296 289 285 266 234 233 248 260 253 246 254 259 250 251 287 308
232 224 232 241 248 257 265 271 276 273 260 259 269 267 250 249 246 230 227 227 212 218 242 246 215 181 186 204 194 146 158 316 354 6 280 280 301 325 322 303 312 330 338 345 352 355 355 357 359 356 352 350 352 355 358 1 2 1 356 347 335 322 310 295 286 286 287 285 286 291 294 293 284 261 256 261 260 249 247 255 259 261 273 284 295
258 252 247 246 251 260 266 269 272 269 265 267 266 242 229 243 258 258 240 216 206 216 243 259 245 211 198 197 189 184 198 203 193 219 251 263 288 319 327 315 315 329 337 344 352 359 0 356 351 351 352 357 4 13 19 20 19 17 14 9 2 351 336 316 295 281 276 277 282 289 295 297 294 291 287 272 250 246 268 275 276 291 309 303 297